Location: Domont
(49.0278°N, 2.3264°E)
Time: 01:02:39
(UTC+00:00)

Orbus 7S? - Pass Details

Date: 04 June 2022
Orbit: 340 x 6374 km, 56.9° (Epoch: 04 July)

Event Time Altitude Azimuth Distance (km) Brightness Sun altitude
Rises 02:44:51 0° 278° (W) 6,242 8.3 -8.5°
Reaches altitude 10° 02:47:56 10° 281° (W) 5,756 8.2 -8.2°
Maximum altitude 03:09:55 73° 9° (N) 5,347 8.4 -5.7°
Drops below altitude 10° 03:52:32 10° 98° (E) 9,715 10.4 -0.4°
Sets 03:59:56 0° 102° (ESE) 10,369 10.5 0.6°
